Location: Newark
(34.0131°N, 4.3314°W)
Time: 08:36:00
(UTC+00:00)

Explorer 11/Cluster Stage 4 - Pass Details

Date: 26 October 2019
Orbit: 467 x 1259 km, 28.8° (Epoch: 20 November)

Event Time Altitude Azimuth Distance (km) Brightness Sun altitude
Rises 05:43:53 0° 226° (SW) 3,190 9.3 -10.4°
Reaches altitude 10° 05:47:07 10° 210° (SSW) 2,107 8.6 -9.8°
Maximum altitude 05:50:36 20° 164° (SSE) 1,421 8.2 -9.1°
Drops below altitude 10° 05:53:39 10° 117° (ESE) 1,821 9.9 -8.4°
Sets 05:56:12 0° 99° (E) 2,622 11.9 -7.9°
